Regional Weather Roundup
Issued by NWS

Home | Current Version | Previous Version | Text Only | Print | Product List | Glossary Off
Versions: 1 2 3 4 5 6 7 8 9 10 11 12 13 14 15 16 17 18 19 20 21 22 23 24 25 26 27 28 29 30 31 32 33 34 35 36 37 38 39 40 41 42 43 44 45 46 47 48 49 50

000
ASUS43 KMPX 020401
RWRMN
WEATHER ROUNDUP FOR MINNESOTA
NATIONAL WEATHER SERVICE TWIN CITIES/CHANHASSEN MN
1000 PM CST SUN MAR 01 2015


NOTE: "FAIR" INDICATES FEW OR NO CLOUDS BELOW 12,000 FEET WITH NO
SIGNIFICANT WEATHER AND/OR OBSTRUCTIONS TO VISIBILITY. N/A MEANS
CURRENT SKY AND/OR WEATHER CONDITIONS ARE NOT AVAILABLE.

MNZ060>063-068>070-020500-
   Twin Cities Metro

CITY           SKY/WX    TMP DP  RH WIND       PRES   REMARKS
TWIN CITIES    CLOUDY    22  11  62 W20G28    30.33R WCI   7
ST PAUL        CLOUDY    24  13  62 NW16      30.34R WCI  11
CRYSTAL        MOCLDY    22  11  62 NW14      30.33R WCI   9
BLAINE         CLOUDY    25  16  68 W14       30.32R WCI  13
EDEN PRAIRIE   CLOUDY    22  10  60 NW13      30.34R WCI  10
SOUTH ST PAUL  CLOUDY    25  13  61 W15G21    30.33R WCI  12
LAKE ELMO      CLOUDY    25  14  63 NW14G20   30.32R WCI  13
$$
MNZ001>005-007-008-013>017-022>024-027-028-020500-
   Northwest Minnesota

CITY           SKY/WX    TMP DP  RH WIND       PRES   REMARKS
BEMIDJI        CLEAR      6   4  89 W8        30.29R WCI  -6
ROSEAU         CLEAR      7   1  78 SW8       30.27R WCI  -6
WARROAD        CLEAR      9   3  78 SW9       30.26R WCI  -5
THIEF RVR FALL MOCLDY     9   9 100 SW6       30.31R WCI  -1
CROOKSTON      CLEAR      9   3  78 SW7       30.35R WCI  -3
FOSSTON        CLEAR     -6  -8  92 CALM      30.32R
DETROIT LAKES  PTCLDY    12   9  85 W7        30.34R WCI   2
MOORHEAD       CLEAR     10   9  92 W7        30.39R WCI   0
PARK RAPIDS    CLEAR      3   0  87 W6        30.31R WCI  -8
MAHNOMEN       FAIR       5   2  88 W8        30.33R WCI  -8
$$
MNZ006-009>011-018-025>026-020500-
   North Central Minnesota

CITY           SKY/WX    TMP DP  RH WIND       PRES   REMARKS
BAUDETTE       PTCLDY    10   3  73 W13       30.23R WCI  -5
FLAG ISLAND    MOCLDY    12   5  73 W7        30.22R WCI   2
INTL FALLS     PTCLDY     9   2  73 W8        30.22R WCI  -3
WASKISH        CLEAR      5   1  85 SW7       30.27R WCI  -7
BIG FORK       CLEAR     10   5  79 W6        30.26R WCI   1
LONGVILLE      CLEAR     10   5  79 W7        30.30R WCI   0
GRAND RAPIDS   PTCLDY    10   5  79 W10G18    30.26R WCI  -3
CRANE LAKE     MOCLDY    12   5  73 W3        30.23R
ORR            CLOUDY    12   5  73 W6        30.19R WCI   3
COOK           CLOUDY    12   7  79 W9        30.22R WCI   0
WALKER         FAIR       9   5  83 W5        30.29R WCI   1
$$
MNZ012-019>021-037-020500-
   Northeast Minnesota

CITY           SKY/WX    TMP DP  RH WIND       PRES   REMARKS
DULUTH         MOCLDY    16   6  65 W14G22    30.21R WCI   2
ELY            CLOUDY    14   9  79 W12       30.17R WCI   0
HIBBING        CLEAR     12   3  67 W8        30.23R WCI   0
EVELETH        PTCLDY    14   5  67 W13G18    30.23R WCI   0
DULUTH HARBOR  CLEAR     19   9  63 W20G25    30.28R WCI   4
SILVER BAY     CLEAR     18   7  62 W5        30.16R WCI  11
GRAND MARAIS     N/A     18   3  52 W8        30.17R WCI   8
G MARAIS ARPRT MOCLDY    10   0  61 NW15G25   30.07R WCI  -6
$$
MNZ029>031-032-039>041-046>048-054>057-064-020500-
   West Central Minnesota

CITY           SKY/WX    TMP DP  RH WIND       PRES   REMARKS
FERGUS FALLS   CLEAR      9   3  78 NW7       30.42R WCI  -3
MORRIS         CLEAR     12   9  85 NW8       30.38R WCI   1
ALEXANDRIA     CLEAR     11   6  81 NW8       30.35R WCI  -1
ELBOW LAKE     FAIR      12   8  84 NW7       30.38R WCI   1
WADENA         FLURRIES  10   7  85 NW8       30.33R WCI  -1
APPLETON       CLEAR     16  10  79 NW10      30.41R WCI   3
BENSON         MOCLDY    16  10  79 N12       30.38R WCI   3
ORTONVILLE     CLEAR     16   9  73 NW9       30.40R WCI   4
MADISON        CLEAR     18  12  79 NW9       30.42R WCI   6
WILLMAR        FAIR      16   9  73 W7        30.39R WCI   6
$$
MNZ033>034-036-042>043-049>051-058-059-020500-
   Central Minnesota

CITY           SKY/WX    TMP DP  RH WIND       PRES   REMARKS
ST CLOUD       CLEAR     17   9  70 NW14      30.34R WCI   3
SAUK CENTRE    FAIR      14   9  80 W7        30.36R WCI   3
PAYNESVILLE    CLEAR     12   9  87 W8        30.36R WCI   1
PINE RIVER     CLEAR     10   7  85 W5        30.34R WCI   2
BRAINERD       CLEAR     14   6  70 NW9       30.32R WCI   2
STAPLES        CLEAR      9   5  85 W6        30.33R WCI  -1
LONG PRAIRIE   FAIR      14   9  79 W10       30.34R WCI   1
LITTLE FALLS   PTCLDY    18   9  68 NW8G17    30.35R WCI   7
LITCHFIELD     PTCLDY    18  12  79 W3        30.37R
MAPLE LAKE     PTCLDY    20  14  77 NW10      30.36R WCI   9
$$
MNZ037-044-045-052-053-020500-
   East Central Minnesota

CITY           SKY/WX    TMP DP  RH WIND       PRES   REMARKS
PRINCETON      CLOUDY    21  10  63 W13G18    30.32R WCI   9
MORA           MOCLDY    19   9  63 NW13      30.32R WCI   7
CAMBRIDGE      CLOUDY    21  10  63 W9        30.30R WCI  11
RUSH CITY      PTCLDY    17   9  69 W7        30.31R WCI   8
MOOSE LAKE     PTCLDY    18   9  68 CALM      30.26R
HINCKLEY       FAIR      19  10  68 W7        30.29R WCI  10
CLOQUET        CLOUDY    16   7  67 NW18G29   30.24R WCI  -1
MCGREGOR       CLEAR     16   9  73 NW14      30.29R WCI   1
$$
MNZ071>073-080-081-089-090-097-098-020500-
   Southwest Minnesota

CITY           SKY/WX    TMP DP  RH WIND       PRES   REMARKS
MONTEVIDEO     FAIR      16  10  79 NW5       30.41R WCI   9
GRANITE FALLS  CLEAR     12   9  85 W8        30.42R WCI   1
CANBY          CLEAR     15  11  82 W10       30.42R WCI   3
MARSHALL       CLEAR     12   7  79 W9        30.42R WCI   0
REDWOOD FALLS  CLEAR     18  12  77 NW12      30.40R WCI   5
OLIVIA         CLEAR     14  10  85 W7        30.39R WCI   4
PIPESTONE      CLEAR     18  12  79 NW7       30.38R WCI   8
WINDOM         CLEAR     16  12  86 W9        30.39R WCI   4
WORTHINGTON    CLEAR     27  10  50 NW10      30.41R WCI  17
JACKSON        CLEAR     19  14  79 NW12      30.39R WCI   7
TRACY          CLEAR     19  12  77 W6        30.40R WCI  10
SLAYTON        CLEAR     15  11  83 CALM      30.40R
$$
MNZ065>067-074>077-082>085-091>093-020500-
   South Central Minnesota

CITY           SKY/WX    TMP DP  RH WIND       PRES   REMARKS
MANKATO        CLEAR     21  12  68 NW16G24   30.37R WCI   7
NEW ULM        CLEAR     18  10  73 W12       30.39R WCI   5
ST JAMES       CLEAR     19  14  79 W10       30.41R WCI   8
FAIRMONT       CLEAR     21  12  68 NW14      30.37R WCI   8
GLENCOE        CLEAR     20  14  78 W12       30.36R WCI   8
FARIBAULT      CLEAR     21  16  79 W12       30.34R WCI   9
OWATONNA       CLEAR     21  14  73 W12G18    30.34R WCI   9
WASECA         CLEAR     19  14  79 W13       30.36R WCI   7
ALBERT LEA     CLEAR     19  16  86 W7        30.35R WCI  10
$$
MNZ078>079-086>088-094>096-020500-
   Southeast Minnesota

CITY           SKY/WX    TMP DP  RH WIND       PRES   REMARKS
ROCHESTER      CLEAR     17  11  77 W16       30.30R WCI   2
RED WING       MOCLDY    21  12  68 W7        30.31R WCI  13
STANTON        CLEAR     21  15  75 W13       30.33R WCI   9
DODGE CENTER   PTCLDY    21  16  79 NW15      30.31R WCI   8
WINONA         CLEAR     25  16  68 W10G18    30.33R WCI  15
AUSTIN         CLEAR     21  14  73 W10       30.33R WCI  10
PRESTON        CLEAR     16  10  77 W10       30.31R WCI   3
$$
ABBREVIATIONS USED IN REMARKS
   TC - TEMPERATURES IN CELSIUS
  WCI - WIND CHILL INDEX
   HX - HEAT INDEX
  VSB - VISIBILITY
$$


USA.gov is the U.S. government's official web portal to all federal, state and local government web resources and services.